Location: Alsip
(41.6689°N, 87.7387°W)
Time: 13:22:28
(UTC+00:00)

Cosmos 292 Rocket - Pass Details

Date: 14 July 2020
Orbit: 674 x 694 km, 74.0° (Epoch: 04 August)

Event Time Altitude Azimuth Distance (km) Brightness Sun altitude
Rises 06:06:36 0° 338° (NNW) 3,050 8.1 -26.7°
Reaches altitude 10° 06:08:55 10° 336° (NNW) 2,128 7.1 -26.7°
Enters shadow 06:13:02 62° 305° (NW) 766 4.0 -26.6°
